User: anonymous   Login
Location: Home
(42.5358°N, 72.7383°W)
Time: 23:30:59
(UTC-05:00)
Language:

TIGRISAT - Orbit

View from above orbital plane
View from above orbital plane
View from above satellite
View from above satellite

Ground track
Ground track

The orbit data is extracted from the following two-line orbital elements,

1 40043U 14033AK  22024.53170464  .00000465  00000-0  75189-4 0  9991
2 40043  97.6572 221.5472 0058194 262.5194  96.9402 14.74699549408413
Epoch (UTC): 24 January 2022 12:45:39
Eccentricity: 0.0058194
inclination: 97.6572°
perigee height: 605 km
apogee height: 687 km
right ascension of ascending node: 221.5472°
argument of perigee: 262.5194°
revolutions per day: 14.74699549
mean anomaly at epoch: 96.9402°
orbit number at epoch: 40841

The dashed part of the orbit path shows where the satellite is in the earth's shadow,  

DLR